�������l�o���
Date,Time,MP-1(��Sv/h),MP-2(��Sv/h),MP-3(��Sv/h),MP-4(��Sv/h),MP-5(��Sv/h),MP-6(��Sv/h),MP-7(��Sv/h),MP-8(��Sv/h),����,����(m/s),���J
2022/08/30,00:00,0.589,0.832,0.528,1.011,0.723,0.336,0.588,0.554,���k��,0.6,��
2022/08/30,00:10,0.589,0.833,0.529,1.011,0.723,0.336,0.585,0.551,�k��,1.7,�L
2022/08/30,00:20,0.588,0.832,0.527,1.011,0.723,0.336,0.586,0.551,�k��,1.7,�L
2022/08/30,00:30,0.588,0.837,0.528,1.009,0.722,0.339,0.586,0.552,�k��,2.0,�L
2022/08/30,00:40,0.589,0.832,0.528,1.010,0.722,0.337,0.586,0.552,�k��,2.8,�L
2022/08/30,00:50,0.589,0.832,0.527,1.013,0.722,0.337,0.585,0.551,���k��,1.9,�L
2022/08/30,01:00,0.588,0.831,0.527,1.010,0.722,0.337,0.584,0.551,��,1.2,�L
2022/08/30,01:10,0.587,0.830,0.526,1.012,0.718,0.337,0.584,0.549,��,2.0,�L
2022/08/30,01:20,0.585,0.828,0.525,1.009,0.716,0.336,0.582,0.551,��,2.8,�L
2022/08/30,01:30,0.584,0.827,0.525,1.007,0.718,0.336,0.583,0.550,���k��,2.0,��
2022/08/30,01:40,0.585,0.827,0.525,1.011,0.720,0.336,0.584,0.550,���k��,1.7,��
2022/08/30,01:50,0.585,0.827,0.525,1.009,0.717,0.336,0.584,0.549,�k��,2.3,��
2022/08/30,02:00,0.584,0.826,0.526,1.008,0.717,0.335,0.582,0.552,�k��,2.3,��
2022/08/30,02:10,0.585,0.825,0.522,1.008,0.716,0.334,0.582,0.552,�k��,3.6,��
2022/08/30,02:20,0.585,0.827,0.524,1.009,0.719,0.334,0.583,0.550,�k��,3.3,��
2022/08/30,02:30,0.585,0.823,0.523,1.005,0.716,0.335,0.585,0.551,�k�k��,2.8,��
2022/08/30,02:40,0.585,0.826,0.525,1.007,0.718,0.334,0.583,0.550,�k��,3.5,��
2022/08/30,02:50,0.587,0.825,0.524,1.008,0.718,0.334,0.583,0.551,�k��,4.3,��
2022/08/30,03:00,0.586,0.826,0.524,1.009,0.717,0.335,0.583,0.549,�k��,3.9,�L
2022/08/30,03:10,0.584,0.825,0.523,1.006,0.717,0.335,0.584,0.551,�k��,3.7,�L
2022/08/30,03:20,0.584,0.823,0.523,1.009,0.716,0.336,0.583,0.550,�k��,4.7,�L
2022/08/30,03:30,0.583,0.822,0.523,1.007,0.716,0.336,0.583,0.549,�k�k��,4.0,�L
2022/08/30,03:40,0.583,0.823,0.522,1.009,0.717,0.334,0.585,0.550,�k�k��,3.6,�L
2022/08/30,03:50,0.582,0.823,0.524,1.006,0.716,0.336,0.585,0.549,�k�k��,4.4,�L
2022/08/30,04:00,0.584,0.823,0.522,1.008,0.717,0.333,0.585,0.551,�k�k��,4.3,��
2022/08/30,04:10,0.583,0.822,0.524,1.007,0.715,0.336,0.584,0.550,�k�k��,3.9,�L
2022/08/30,04:20,0.583,0.823,0.523,1.006,0.714,0.336,0.583,0.551,�k�k��,2.5,�L
2022/08/30,04:30,0.584,0.821,0.522,1.007,0.715,0.335,0.583,0.551,�k,3.3,��
2022/08/30,04:40,0.583,0.822,0.521,1.008,0.715,0.335,0.585,0.551,�k�k��,5.1,�L
2022/08/30,04:50,0.582,0.821,0.523,1.005,0.716,0.336,0.586,0.551,�k,4.8,�L
2022/08/30,05:00,0.584,0.823,0.521,1.006,0.716,0.335,0.584,0.550,�k�k��,3.9,�L
2022/08/30,05:10,0.586,0.823,0.521,1.008,0.714,0.335,0.582,0.550,�k�k��,4.3,�L
2022/08/30,05:20,0.584,0.823,0.523,1.008,0.716,0.336,0.584,0.552,�k�k��,4.3,�L
2022/08/30,05:30,0.585,0.823,0.523,1.006,0.716,0.335,0.585,0.550,�k��,4.1,�L
2022/08/30,05:40,0.583,0.821,0.522,1.010,0.716,0.335,0.583,0.550,�k��,4.4,�L
2022/08/30,05:50,0.583,0.820,0.522,1.006,0.714,0.336,0.584,0.552,�k��,4.2,�L
2022/08/30,06:00,0.582,0.821,0.521,1.007,0.715,0.335,0.585,0.551,�k�k��,3.7,�L
2022/08/30,06:10,0.583,0.822,0.522,1.005,0.715,0.335,0.583,0.551,�k�k��,4.1,�L
2022/08/30,06:20,0.582,0.821,0.520,1.005,0.716,0.336,0.584,0.551,�k�k��,4.8,��
2022/08/30,06:30,0.584,0.820,0.522,1.007,0.714,0.336,0.584,0.549,�k�k��,4.5,�L
2022/08/30,06:40,0.584,0.820,0.520,1.007,0.715,0.335,0.583,0.551,�k�k��,3.9,�L
2022/08/30,06:50,0.583,0.820,0.521,1.006,0.715,0.334,0.584,0.550,�k�k��,3.5,��
2022/08/30,07:00,0.582,0.822,0.520,1.006,0.715,0.335,0.584,0.551,�k�k��,3.6,�L
2022/08/30,07:10,0.584,0.820,0.522,1.006,0.715,0.334,0.583,0.550,�k�k��,3.6,�L
2022/08/30,07:20,0.585,0.820,0.522,1.008,0.716,0.335,0.583,0.551,�k��,3.5,�L
2022/08/30,07:30,0.583,0.819,0.522,1.008,0.712,0.333,0.583,0.550,�k��,3.8,�L
2022/08/30,07:40,0.584,0.818,0.521,1.005,0.715,0.336,0.583,0.551,�k��,3.1,�L
2022/08/30,07:50,0.582,0.817,0.522,1.007,0.712,0.334,0.582,0.547,�k�k��,3.1,��
2022/08/30,08:00,0.583,0.818,0.520,1.009,0.710,0.334,0.582,0.549,�k�k��,3.9,��
2022/08/30,08:10,0.581,0.818,0.522,1.007,0.715,0.336,0.582,0.550,�k�k��,4.2,�L
2022/08/30,08:20,0.581,0.819,0.522,1.008,0.713,0.334,0.582,0.548,�k�k��,3.8,�L
2022/08/30,08:30,0.583,0.815,0.522,1.006,0.714,0.334,0.582,0.548,�k�k��,3.2,�L
2022/08/30,08:40,0.582,0.818,0.524,1.006,0.713,0.334,0.583,0.549,�k�k��,2.6,�L
2022/08/30,08:50,0.583,0.815,0.520,1.006,0.713,0.334,0.582,0.548,�k,2.6,�L
2022/08/30,09:00,0.582,0.817,0.521,1.006,0.712,0.335,0.581,0.547,�k,2.6,�L
2022/08/30,09:10,0.583,0.816,0.521,1.003,0.713,0.335,0.581,0.548,�k�k��,2.5,�L
2022/08/30,09:20,0.582,0.815,0.522,1.005,0.711,0.334,0.580,0.549,�k�k��,2.8,�L
2022/08/30,09:30,0.581,0.814,0.521,1.003,0.710,0.335,0.581,0.547,�k,2.0,�L
2022/08/30,09:40,0.580,0.811,0.520,1.003,0.709,0.334,0.582,0.546,�k,2.2,�L
2022/08/30,09:50,0.580,0.810,0.519,1.003,0.707,0.335,0.581,0.547,�k,2.3,�L
2022/08/30,10:00,0.581,0.812,0.519,1.002,0.705,0.335,0.581,0.547,�k�k��,1.7,�L
2022/08/30,10:10,0.580,0.813,0.520,1.003,0.709,0.334,0.582,0.547,�k�k��,1.2,�L
2022/08/30,10:20,0.581,0.810,0.520,1.003,0.708,0.335,0.580,0.547,�k�k��,1.7,�L
2022/08/30,10:30,0.580,0.810,0.518,1.003,0.708,0.334,0.581,0.547,�k�k��,1.2,�L
2022/08/30,10:40,0.580,0.808,0.520,1.001,0.707,0.335,0.580,0.546,�k,1.7,�L
2022/08/30,10:50,0.581,0.810,0.518,1.001,0.705,0.335,0.582,0.548,�k,1.9,�L
2022/08/30,11:00,0.580,0.812,0.520,1.002,0.709,0.335,0.581,0.547,�k,2.2,��
2022/08/30,11:10,0.580,0.812,0.520,1.000,0.707,0.333,0.581,0.547,�k�k��,2.0,��
2022/08/30,11:20,0.580,0.811,0.518,1.000,0.709,0.333,0.581,0.545,�k��,2.0,��
2022/08/30,11:30,0.579,0.809,0.517,1.001,0.709,0.334,0.581,0.547,�k�k��,2.3,��
2022/08/30,11:40,0.580,0.810,0.518,1.000,0.708,0.333,0.582,0.547,�k�k��,2.8,��
2022/08/30,11:50,0.579,0.813,0.519,1.000,0.706,0.332,0.583,0.546,�k�k��,2.8,��
2022/08/30,12:00,0.580,0.814,0.517,0.999,0.708,0.332,0.583,0.548,�k��,2.8,��
2022/08/30,12:10,0.582,0.814,0.517,1.000,0.708,0.333,0.583,0.547,�k��,2.6,��
2022/08/30,12:20,0.581,0.812,0.516,0.996,0.709,0.333,0.582,0.548,�k��,2.6,��
2022/08/30,12:30,0.579,0.814,0.518,0.999,0.708,0.334,0.582,0.547,�k��,2.3,�L
2022/08/30,12:40,0.581,0.813,0.518,0.998,0.709,0.334,0.584,0.547,�k��,2.2,�L
2022/08/30,12:50,0.581,0.812,0.518,1.000,0.710,0.332,0.583,0.548,���k��,2.6,�L
2022/08/30,13:00,0.579,0.814,0.518,0.998,0.709,0.333,0.585,0.549,�k��,2.3,�L
2022/08/30,13:10,0.582,0.814,0.518,0.999,0.711,0.333,0.583,0.548,���k��,2.9,�L
2022/08/30,13:20,0.582,0.811,0.521,1.000,0.709,0.334,0.583,0.548,�k��,2.3,�L
2022/08/30,13:30,0.582,0.812,0.518,1.000,0.708,0.334,0.583,0.548,���k��,1.9,�L
2022/08/30,13:40,0.580,0.812,0.519,1.001,0.709,0.333,0.583,0.548,�k��,2.3,�L
2022/08/30,13:50,0.581,0.814,0.519,1.001,0.711,0.335,0.583,0.548,���k��,1.9,�L
2022/08/30,14:00,0.581,0.813,0.521,1.004,0.709,0.333,0.583,0.545,�k��,2.3,�L
2022/08/30,14:10,0.582,0.812,0.518,1.001,0.707,0.336,0.584,0.548,�k��,2.2,�L
2022/08/30,14:20,0.582,0.812,0.517,1.000,0.708,0.333,0.584,0.549,�k�k��,2.3,�L
2022/08/30,14:30,0.580,0.815,0.517,1.001,0.710,0.334,0.583,0.547,�k�k��,2.3,��
2022/08/30,14:40,0.580,0.811,0.517,1.002,0.708,0.332,0.584,0.548,�k�k��,2.2,��
2022/08/30,14:50,0.579,0.812,0.518,1.000,0.710,0.334,0.582,0.549,�k��,2.0,��
2022/08/30,15:00,0.579,0.813,0.518,1.002,0.709,0.335,0.583,0.548,���k��,2.0,��
2022/08/30,15:10,0.580,0.813,0.520,1.001,0.708,0.335,0.582,0.548,�k��,2.2,��
2022/08/30,15:20,0.581,0.813,0.519,1.000,0.708,0.332,0.580,0.548,�k��,2.3,��
2022/08/30,15:30,0.580,0.814,0.519,1.001,0.711,0.335,0.583,0.548,�k�k��,2.2,�L
2022/08/30,15:40,0.581,0.814,0.518,1.002,0.709,0.334,0.581,0.548,�k�k��,2.5,�L
2022/08/30,15:50,0.582,0.814,0.520,1.000,0.709,0.333,0.583,0.548,�k�k��,2.0,�L
2022/08/30,16:00,0.580,0.814,0.519,1.002,0.709,0.335,0.583,0.549,�k�k��,2.3,�L
2022/08/30,16:10,0.577,0.814,0.517,1.002,0.709,0.336,0.582,0.549,�k�k��,2.0,�L
2022/08/30,16:20,0.575,0.815,0.520,1.001,0.710,0.336,0.583,0.547,�k�k��,2.6,�L
2022/08/30,16:30,0.577,0.815,0.519,1.001,0.707,0.336,0.582,0.547,�k�k��,2.6,�L
2022/08/30,16:40,0.575,0.813,0.518,1.000,0.708,0.336,0.583,0.548,�k�k��,2.6,�L
2022/08/30,16:50,0.577,0.813,0.518,1.001,0.708,0.336,0.581,0.547,�k,2.5,�L
2022/08/30,17:00,0.576,0.813,0.518,1.000,0.705,0.333,0.581,0.548,�k�k��,2.6,�L
2022/08/30,17:10,0.575,0.813,0.519,1.001,0.707,0.335,0.582,0.548,�k�k��,2.5,�L
2022/08/30,17:20,0.576,0.812,0.518,1.001,0.705,0.335,0.581,0.546,�k�k��,2.3,�L
2022/08/30,17:30,0.575,0.813,0.519,1.003,0.705,0.335,0.581,0.546,�k�k��,2.0,�L
2022/08/30,17:40,0.573,0.812,0.520,1.002,0.707,0.333,0.580,0.547,�k�k��,1.7,�L
2022/08/30,17:50,0.577,0.811,0.520,1.001,0.705,0.334,0.582,0.547,�k�k��,2.0,�L
2022/08/30,18:00,0.580,0.812,0.519,0.999,0.706,0.335,0.581,0.548,�k�k��,2.3,�L
2022/08/30,18:10,0.578,0.811,0.518,1.000,0.707,0.335,0.582,0.547,�k�k��,2.5,�L
2022/08/30,18:20,0.579,0.810,0.520,1.000,0.707,0.335,0.582,0.548,�k�k��,2.8,�L
2022/08/30,18:30,0.580,0.812,0.519,1.000,0.706,0.338,0.581,0.547,�k�k��,2.3,�L
2022/08/30,18:40,0.582,0.812,0.521,0.997,0.707,0.334,0.581,0.546,�k,2.3,�L
2022/08/30,18:50,0.585,0.811,0.518,1.000,0.704,0.336,0.581,0.547,�k�k��,2.5,�L
2022/08/30,19:00,0.582,0.809,0.518,0.998,0.705,0.334,0.582,0.546,�k�k��,1.7,�L
2022/08/30,19:10,0.576,0.810,0.518,0.999,0.703,0.335,0.580,0.546,�k�k��,1.4,�L
2022/08/30,19:20,0.577,0.809,0.518,0.995,0.704,0.334,0.579,0.547,�k��,1.2,�L
2022/08/30,19:30,0.578,0.806,0.518,0.995,0.702,0.335,0.579,0.546,�k��,1.2,�L
2022/08/30,19:40,0.576,0.806,0.518,0.994,0.703,0.335,0.578,0.546,�k��,1.2,�L
2022/08/30,19:50,0.577,0.806,0.518,0.993,0.705,0.334,0.580,0.547,�k�k��,1.4,�L
2022/08/30,20:00,0.576,0.806,0.517,0.994,0.705,0.334,0.580,0.547,�k�k��,1.5,�L
2022/08/30,20:10,0.575,0.808,0.517,0.992,0.705,0.333,0.579,0.545,�k��,0.9,�L
2022/08/30,20:20,0.576,0.805,0.517,0.991,0.702,0.334,0.578,0.546,�k��,1.7,�L
2022/08/30,20:30,0.576,0.806,0.517,0.990,0.704,0.333,0.580,0.546,�k��,1.4,�L
2022/08/30,20:40,0.574,0.807,0.516,0.991,0.704,0.333,0.579,0.546,���k��,1.4,�L
2022/08/30,20:50,0.576,0.807,0.517,0.992,0.703,0.334,0.579,0.547,�k��,1.7,�L
2022/08/30,21:00,0.575,0.805,0.517,0.992,0.701,0.334,0.578,0.545,�k��,2.0,�L
2022/08/30,21:10,0.576,0.803,0.517,0.989,0.701,0.334,0.577,0.547,�k��,2.0,�L
2022/08/30,21:20,0.575,0.803,0.516,0.989,0.701,0.334,0.577,0.544,�k��,2.3,�L
2022/08/30,21:30,0.575,0.804,0.515,0.990,0.703,0.334,0.578,0.544,�k��,2.3,�L
2022/08/30,21:40,0.574,0.804,0.516,0.991,0.703,0.334,0.577,0.543,�k��,2.3,�L
2022/08/30,21:50,0.573,0.803,0.515,0.990,0.702,0.334,0.577,0.543,�k��,2.3,�L
2022/08/30,22:00,0.574,0.801,0.515,0.986,0.698,0.334,0.576,0.543,�k��,2.5,�L
2022/08/30,22:10,0.573,0.801,0.514,0.983,0.700,0.334,0.577,0.542,�k��,1.9,�L
2022/08/30,22:20,0.571,0.802,0.514,0.987,0.699,0.332,0.577,0.542,�k��,2.0,�L
2022/08/30,22:30,0.573,0.801,0.514,0.986,0.699,0.332,0.576,0.544,�k�k��,2.3,�L
2022/08/30,22:40,0.573,0.801,0.513,0.983,0.696,0.332,0.576,0.545,�k�k��,2.6,�L
2022/08/30,22:50,0.574,0.802,0.514,0.983,0.696,0.333,0.576,0.545,�k�k��,3.3,�L
2022/08/30,23:00,0.571,0.801,0.514,0.982,0.699,0.332,0.575,0.544,�k�k��,3.1,�L
2022/08/30,23:10,0.571,0.801,0.515,0.984,0.697,0.333,0.576,0.544,�k��,3.3,�L
2022/08/30,23:20,0.572,0.800,0.514,0.984,0.697,0.332,0.576,0.543,�k��,2.3,�L
2022/08/30,23:30,0.573,0.801,0.515,0.983,0.698,0.333,0.575,0.544,�k��,1.7,�L
2022/08/30,23:40,0.573,0.800,0.513,0.984,0.697,0.332,0.576,0.544,�k��,2.2,�L
2022/08/30,23:50,0.572,0.800,0.514,0.984,0.697,0.332,0.575,0.543,�k�k��,2.6,�L
